Preview of NWS' New Version of Forecast
This preview is not operational and should not be used for support decisions.

Regional Weather Roundup (RWR)

Issued by National Weather Service (NWS)

                            
000
ASUS46 KPQR 201610
RWROR 

OREGON REGIONAL WEATHER ROUNDUP
NATIONAL WEATHER SERVICE PORTLAND OR
900 AM PDT TUE AUG 20 2019

NOTE: "FAIR" INDICATES FEW OR NO CLOUDS BELOW 12,000 FEET WITH
NO SIGNIFICANT WEATHER AND/OR OBSTRUCTIONS TO VISIBILITY.

ORZ001>013-201700-
NORTHWEST OREGON

  
CITY           SKY/WX    TMP DP  RH WIND       PRES   REMARKS
ASTORIA        MOSUNNY   62  56  80 CALM      29.95S                  
TILLAMOOK      MOSUNNY   63  55  77 CALM      29.99S                  
NEWPORT        PTSUNNY   63  57  82 S5        30.02S                  
FLORENCE       CLOUDY    61  55  82 SE3       30.00S                  
PORTLAND       PTSUNNY   65  57  75 E3        29.96S                  
VANCOUVER WA   SUNNY     65  57  75 CALM      29.96S                  
SCAPPOOSE      MOSUNNY   63  56  78 CALM      29.95S                  
HILLSBORO      MOSUNNY   63  55  75 CALM      29.96S                  
AURORA         SUNNY     64  55  72 CALM      29.98R                  
MCMINNVILLE    MOSUNNY   63  56  78 CALM      29.97R                  
SALEM          MOSUNNY   65  55  70 CALM      29.96S                  
CORVALLIS      MOSUNNY   67  57  70 NW5       29.98S                  
EUGENE         PTSUNNY   66  56  70 S8        29.98S                  
CRESWELL       SUNNY     66  57  72 S6        29.98S                  
$$

ORZ021-028-201700-
SOUTHWEST OREGON

  
CITY           SKY/WX    TMP DP  RH WIND       PRES   REMARKS
NORTH BEND     MOSUNNY   60  58  92 SE6       30.03S                  
BROOKINGS      LGT RAIN  54  54 100 SE3       30.06R VSB 1/2          
ROSEBURG       SUNNY     67  57  70 CALM      29.99S                  
SEXTON SUMMIT  SUNNY     64  52  64 S3        30.07R                  
GRANTS PASS    FAIR      68  54  60 CALM      30.02S                  
MEDFORD        SUNNY     68  52  56 N3        29.98S                  
$$

ORZ014>016-041-201700-
COLUMBIA GORGE

  
CITY           SKY/WX    TMP DP  RH WIND       PRES   REMARKS
TROUTDALE      SUNNY     65  53  65 CALM      29.96F                  
HOOD RIVER     SUNNY     63  48  59 CALM      29.97S                  
THE DALLES     SUNNY     68  53  58 VRB3      29.93S                  
$$

ORZ029>031-041-044-049-050-061>064-502-503-505>511-201700-
EASTERN OREGON

  
CITY           SKY/WX    TMP DP  RH WIND       PRES   REMARKS
MADRAS         SUNNY     68  50  52 CALM      30.02S                  
REDMOND        SUNNY     72  47  40 S3        30.02F                  
BEND           SUNNY     72  50  46 S3        30.03S                  
PRINEVILLE     SUNNY     66  45  45 E5        30.03F                  
KLAMATH FALLS  SUNNY     63  43  48 SE7       30.10F                  
LAKEVIEW       SUNNY     62  39  42 CALM      30.16S                  
HERMISTON      SUNNY     74  49  41 W5        29.92S                  
PENDLETON      SUNNY     71  44  37 VRB3      29.95R                  
JOHN DAY       MOSUNNY   69  42  38 E7        30.05F                  
MEACHAM        SUNNY     67  46  47 CALM      30.05S                  
LA GRANDE      MOSUNNY   63  46  54 CALM      30.05S                  
BAKER CITY     PTSUNNY   61  51  70 SW3       30.06S                  
BURNS          SUNNY     64  40  41 SE5       30.10S                  
ROME             N/A     77  34  21 CALM      30.06S                  
ONTARIO        SUNNY     79  50  36 W6        29.97S                  
$$